Castroville, TX

9:47 PM CDT on March 23, 2017 (GMT -0500)
Castroville

Weather History for KCVB - August, 2012

Change the Weather History Date:

Thursday, August 2, 2012

  Actual Average (KHDO) Record (KHDO)
Temperature  
Mean Temperature 85 °F -  
Max Temperature 102 °F 94 °F 105 °F (2011)
Min Temperature 68 °F 70 °F 68 °F (2005)
Cooling Degree Days 20    
Growing Degree Days 35 (Base 50)    
Moisture  
Dew Point 62 °F    
Average Humidity 50    
Maximum Humidity 89    
Minimum Humidity 21    
Precipitation  
Precipitation 0.00 in - - ()
Sea Level Pressure  
Sea Level Pressure 29.90 in    
Wind  
Wind Speed 5 mph (SE)    
Max Wind Speed 16 mph    
Max Gust Speed 21 mph    
Visibility 10 miles    
Events      
Averages and records for this station are not official NWS values.
T = Trace of Precipitation, MM = Missing Value Source: NWS Daily Summary

Daily Weather History Graph

Daily Weather History Graph

Search for Another Location

Airport or City:

Trip Planner

Search our weather history database for the weather conditions in past years. The results will help you decide how hot, cold, wet, or windy it might be!

Date:

Astronomy

Aug. 02, 2012 Rise Set
Actual Time 6:56 AM CDT 8:26 PM CDT
Civil Twilight 6:30 AM CDT 8:51 PM CDT
Nautical Twilight 6:00 AM CDT 9:22 PM CDT
Astronomical Twilight 5:28 AM CDT 9:54 PM CDT
Moon 8:43 PM CDT (8/2) 7:27 AM CDT (8/2)
Length of Visible Light 14h 21m
Length of Day
13h 29m
Full, 100% of the Moon is Illuminated
Aug 2
Full
Aug 9
Last Quarter
Aug 17
New
Aug 24
First Quarter
Aug 31
Full

Hourly Weather History & Observations

Time (CDT) Temp. Heat Index Dew Point Humidity Pressure Visibility Wind Dir Wind Speed Gust Speed Precip Events Conditions
12:15 AM 82.4 °F 82.5 °F 59.0 °F 45% 29.94 in 10.0 mi SE 4.6 mph - N/A   Clear
12:35 AM 80.6 °F 81.5 °F 60.8 °F 51% 29.94 in 10.0 mi SE 5.8 mph - N/A   Clear
12:55 AM 80.6 °F 81.5 °F 60.8 °F 51% 29.94 in 10.0 mi SE 4.6 mph - N/A   Clear
1:15 AM 78.8 °F - 60.8 °F 54% 29.94 in 10.0 mi ESE 3.5 mph - N/A   Clear
1:35 AM 77.0 °F - 60.8 °F 57% 29.94 in 10.0 mi Calm Calm - N/A   Clear
1:55 AM 77.0 °F - 60.8 °F 57% 29.94 in 10.0 mi East 3.5 mph - N/A   Clear
2:15 AM 77.0 °F - 62.6 °F 61% 29.94 in 10.0 mi East 5.8 mph - N/A   Clear
2:35 AM 77.0 °F - 62.6 °F 61% 29.93 in 10.0 mi East 4.6 mph - N/A   Clear
2:55 AM 75.2 °F - 62.6 °F 65% 29.94 in 10.0 mi East 3.5 mph - N/A   Clear
3:15 AM 75.2 °F - 64.4 °F 69% 29.93 in 10.0 mi East 4.6 mph - N/A   Clear
3:35 AM 73.4 °F - 64.4 °F 73% 29.93 in 10.0 mi Calm Calm - N/A   Clear
4:35 AM 73.4 °F - 64.4 °F 73% 29.93 in 10.0 mi ENE 3.5 mph - N/A   Clear
4:55 AM 73.4 °F - 66.2 °F 78% 29.93 in 10.0 mi Calm Calm - N/A   Clear
5:15 AM 71.6 °F - 64.4 °F 78% 29.93 in 10.0 mi Calm Calm - N/A   Clear
5:35 AM 71.6 °F - 64.4 °F 78% 29.93 in 10.0 mi Calm Calm - N/A   Clear
5:55 AM 71.6 °F - 64.4 °F 78% 29.93 in 10.0 mi Calm Calm - N/A   Clear
6:15 AM 69.8 °F - 64.4 °F 83% 29.94 in 10.0 mi Calm Calm - N/A   Clear
6:35 AM 69.8 °F - 64.4 °F 83% 29.94 in 10.0 mi Calm Calm - N/A   Clear
6:55 AM 68.0 °F - 62.6 °F 83% 29.94 in 10.0 mi Calm Calm - N/A   Clear
7:15 AM 69.8 °F - 62.6 °F 78% 29.94 in 10.0 mi Calm Calm - N/A   Clear
7:35 AM 69.8 °F - 64.4 °F 83% 29.94 in 10.0 mi Calm Calm - N/A   Clear
7:55 AM 71.6 °F - 66.2 °F 83% 29.94 in 10.0 mi Calm Calm - N/A   Scattered Clouds
8:15 AM 73.4 °F - 69.8 °F 88% 29.95 in 7.0 mi ENE 3.5 mph - N/A   Overcast
8:35 AM 75.2 °F - 71.6 °F 89% 29.96 in 7.0 mi ESE 3.5 mph - N/A   Mostly Cloudy
8:55 AM 77.0 °F - 71.6 °F 83% 29.97 in 10.0 mi SE 4.6 mph - N/A   Scattered Clouds
9:15 AM 77.0 °F - 69.8 °F 78% 29.97 in 10.0 mi Calm Calm - N/A   Scattered Clouds
9:35 AM 78.8 °F - 69.8 °F 74% 29.96 in 10.0 mi SE 4.6 mph - N/A   Scattered Clouds
9:55 AM 80.6 °F 83.9 °F 69.8 °F 70% 29.95 in 10.0 mi South 5.8 mph - N/A   Scattered Clouds
10:15 AM 82.4 °F 86.3 °F 69.8 °F 66% 29.95 in 10.0 mi SSW 4.6 mph - N/A   Clear
10:35 AM 84.2 °F 88.4 °F 69.8 °F 62% 29.95 in 10.0 mi South 5.8 mph - N/A   Clear
10:55 AM 86.0 °F 90.4 °F 69.8 °F 58% 29.95 in 10.0 mi SSE 4.6 mph - N/A   Clear
11:35 AM 87.8 °F 90.4 °F 66.2 °F 49% 29.94 in 10.0 mi South 5.8 mph - N/A   Clear
11:55 AM 89.6 °F 92.2 °F 66.2 °F 46% 29.94 in 10.0 mi SSE 4.6 mph - N/A   Clear
12:15 PM 91.4 °F 94.0 °F 66.2 °F 43% 29.94 in 10.0 mi ESE 6.9 mph - N/A   Clear
12:35 PM 91.4 °F 93.2 °F 64.4 °F 41% 29.93 in 10.0 mi SE 9.2 mph - N/A   Clear
12:55 PM 95.0 °F 96.0 °F 62.6 °F 34% 29.92 in 10.0 mi SE 3.5 mph 9.2 mph N/A   Clear
1:15 PM 95.0 °F 96.0 °F 62.6 °F 34% 29.92 in 10.0 mi SSE 6.9 mph - N/A   Clear
1:35 PM 95.0 °F 95.2 °F 60.8 °F 32% 29.91 in 10.0 mi South 8.1 mph - N/A   Clear
1:55 PM 96.8 °F 96.2 °F 59.0 °F 28% 29.91 in 10.0 mi South 9.2 mph 16.1 mph N/A   Clear
2:15 PM 96.8 °F 96.2 °F 59.0 °F 28% 29.90 in 10.0 mi South 11.5 mph 18.4 mph N/A   Clear
2:35 PM 98.6 °F 97.2 °F 55.4 °F 24% 29.88 in 10.0 mi SSE 9.2 mph 16.1 mph N/A   Clear
2:55 PM 98.6 °F 97.6 °F 57.2 °F 25% 29.88 in 10.0 mi SE 12.7 mph 20.7 mph N/A   Clear
3:15 PM 100.4 °F 98.8 °F 55.4 °F 22% 29.87 in 10.0 mi South 9.2 mph - N/A   Clear
3:55 PM 100.4 °F 98.8 °F 55.4 °F 22% 29.86 in 10.0 mi South 6.9 mph 17.3 mph N/A   Clear
4:15 PM 100.4 °F 99.7 °F 57.2 °F 24% 29.85 in 10.0 mi South 10.4 mph 17.3 mph N/A   Clear
4:35 PM 102.2 °F 100.9 °F 55.4 °F 21% 29.85 in 10.0 mi SSE 11.5 mph 18.4 mph N/A   Clear
4:55 PM 102.2 °F 100.9 °F 55.4 °F 21% 29.85 in 10.0 mi SSE 10.4 mph 18.4 mph N/A   Clear
5:15 PM 100.4 °F 99.7 °F 57.2 °F 24% 29.84 in 10.0 mi SE 12.7 mph 20.7 mph N/A   Clear
5:35 PM 102.2 °F 100.9 °F 55.4 °F 21% 29.83 in 10.0 mi SSE 9.2 mph 20.7 mph N/A   Clear
5:55 PM 100.4 °F 98.8 °F 55.4 °F 22% 29.83 in 10.0 mi SSE 9.2 mph 20.7 mph N/A   Clear
6:15 PM 100.4 °F 98.8 °F 55.4 °F 22% 29.82 in 10.0 mi SE 8.1 mph 18.4 mph N/A   Clear
6:35 PM 100.4 °F 98.8 °F 55.4 °F 22% 29.82 in 10.0 mi SSE 11.5 mph - N/A   Clear
6:55 PM 100.4 °F 98.8 °F 55.4 °F 22% 29.82 in 10.0 mi SSE 12.7 mph - N/A   Clear
7:15 PM 98.6 °F 97.2 °F 55.4 °F 24% 29.81 in 10.0 mi SSE 12.7 mph - N/A   Clear
7:35 PM 98.6 °F 97.2 °F 55.4 °F 24% 29.81 in 10.0 mi SSE 10.4 mph - N/A   Clear
7:55 PM 96.8 °F 96.2 °F 59.0 °F 28% 29.81 in 10.0 mi ESE 8.1 mph - N/A   Clear
8:15 PM 95.0 °F 94.4 °F 59.0 °F 30% 29.82 in 10.0 mi ESE 9.2 mph - N/A   Clear
8:35 PM 93.2 °F 94.9 °F 64.4 °F 38% 29.83 in 10.0 mi SE 11.5 mph 17.3 mph N/A   Clear
8:55 PM 91.4 °F 93.2 °F 64.4 °F 41% 29.84 in 10.0 mi SE 13.8 mph 17.3 mph N/A   Clear
9:15 PM 91.4 °F 93.2 °F 64.4 °F 41% 29.84 in 10.0 mi SE 16.1 mph 20.7 mph N/A   Clear
9:35 PM 89.6 °F 90.1 °F 62.6 °F 40% 29.85 in 10.0 mi SE 15.0 mph 19.6 mph N/A   Clear
9:55 PM 89.6 °F 90.1 °F 62.6 °F 40% 29.85 in 10.0 mi SE 16.1 mph 19.6 mph N/A   Clear
10:15 PM 87.8 °F 88.5 °F 62.6 °F 43% 29.85 in 10.0 mi SE 12.7 mph 19.6 mph N/A   Clear
10:35 PM 86.0 °F 86.1 °F 60.8 °F 43% 29.86 in 10.0 mi SE 9.2 mph - N/A   Clear
10:55 PM 86.0 °F 86.1 °F 60.8 °F 43% 29.87 in 10.0 mi SE 11.5 mph 18.4 mph N/A   Clear
11:15 PM 84.2 °F 85.0 °F 62.6 °F 48% 29.87 in 10.0 mi SE 9.2 mph - N/A   Clear
11:35 PM 82.4 °F 83.4 °F 62.6 °F 51% 29.87 in 10.0 mi SE 5.8 mph - N/A   Clear
11:55 PM 82.4 °F 83.4 °F 62.6 °F 51% 29.89 in 10.0 mi SE 6.9 mph - N/A   Clear